logo
Rechercher aéroport 
image banner adimage banner adimage banner ad
image banner ad

WMKI - Ipoh / Ipoh Sultan Azlan Shah

Situé à Ipoh, Malaysia

ICAO - WMKI, IATA - IPH

Données fournies par Airmate  

Information générale

Coordonnées: N4°34'9" E101°5'35"
Élévation : 130 feet MSL.
 
Voir autres Aéroports à Perak

Données opérationnelles

Special qualification required
Heure actuelle UTC:
Heure actuelle locale:
Météo
METAR: WMKI 231700Z 04004KT 010V090 8000 FEW002 25/24 Q1012
TAF: TAF WMKI 231700Z 2318/2418 06003KT 7000 FEW002 SCT026
Voir NOTAMs / SUP AIP / TFR affectant cet aéroport [VIEW]
Fréquences de communication: [VIEW]

Pistes:

Identifiant RWYQFULongueur (ft)Largeur (ft)SurfaceLDA (ft)
0441°6299148ASP
22221°6299148ASP

Coordonnées de l'aéroport

Adresse: Ipoh Malaysia

Vue satellite de WMKI